003  
ASUS43 KLMK 281410  
RWRKY  
KENTUCKY REGIONAL WEATHER ROUNDUP  
NATIONAL WEATHER SERVICE LOUISVILLE KY  
1000 AM EDT SAT MAR 28 2015  
 
NOTE "FAIR" INDICATES FEW OR NO CLOUDS BELOW 12,000 FEET  
WITH NO SIGNIFICANT WEATHER AND/OR S TO VISIBILITY
.  
 
KYZ001>023-026-027-061>063-070>075-281500-  
WESTERN AND SOUTH CENTRAL KENTUCKY  
 
CITY SKY/WX TMP DP RH WIND PRES REMARKS
 
PADUCAH MOSUNNY 34 24 67 CALM 30.29R  
HENDERSON SUNNY 28 16 59 NE9 30.30R WCI 20  
OWENSBORO SUNNY 27 15 60 N9 30.31R WCI 18  
HOPKINSVILLE SUNNY 31 21 65 NE8 30.27R WCI 24  
BOWLING GREEN SUNNY 30 13 49 NE8 30.28R WCI 22  
GLASGOW SUNNY 29 16 57 NE9 30.25R WCI 21  

 
 
KYZ024-025-028>034-038-045-046-053-281500-  
NORTH CENTRAL KENTUCKY  
 
CITY SKY/WX TMP DP RH WIND PRES REMARKS
 
LOUISVILLE/SDF MOSUNNY 28 15 58 NE7 30.28R WCI 21  
LOUISVILLE/LOU SUNNY 28 15 58 NE6 30.28R WCI 22  
FORT KNOX MOSUNNY 27 15 60 N7 30.25R WCI 19  

 
 
KYZ035>037-039>044-047>052-055>060-089>105-281500-  
NORTHEAST KENTUCKY  
 
CITY SKY/WX TMP DP RH WIND PRES REMARKS
 
LEXINGTON SUNNY 27 17 66 VRB6 30.23R WCI 20  
COVINGTON FAIR 26 16 65 VRB6 30.25R WCI 19  
FRANKFORT SUNNY 26 15 63 NE7 30.24R WCI 18  

 
 
KYZ054-064>069-076>088-106>120-281500-  
SOUTHEAST KENTUCKY  
 
CITY SKY/WX TMP DP RH WIND PRES REMARKS
 
JACKSON LGT SNOW 26 14 60 VRB3 30.17R  
LONDON PTSUNNY 30 11 45 N8 30.19R WCI 22  
SOMERSET SUNNY 28 14 54 NE7 30.24R WCI 21  
MIDDLESBORO PTSUNNY 29 14 52 N12 30.18R WCI 20  
MONTICELLO PTSUNNY 30 17 58 NE8 30.25R WCI 22  

 
 
CLICK HERE TO GO TO PREVIOUS BULLETINS.

The Nexlab KY Page Main Text Page